TimeCST,TemperatureF,Dew PointF,Humidity,Sea Level PressureIn,VisibilityMPH,Wind Direction,Wind SpeedMPH,Gust SpeedMPH,PrecipitationIn,Events,Conditions,WindDirDegrees,DateUTC
12:31 AM,30.2,26.6,86,30.17,10.0,NNW,6.9,-,0.00,,Overcast,340,2013-03-02 06:31:00
12:53 AM,30.9,27.0,85,30.18,10.0,NNW,6.9,-,0.00,,Overcast,330,2013-03-02 06:53:00
1:33 AM,30.2,26.6,86,30.17,10.0,NNW,8.1,-,N/A,,Overcast,330,2013-03-02 07:33:00
1:53 AM,30.9,28.0,89,30.18,10.0,NNW,6.9,-,N/A,,Overcast,340,2013-03-02 07:53:00
2:53 AM,30.9,28.0,89,30.17,7.0,NNW,5.8,-,0.00,,Overcast,330,2013-03-02 08:53:00
3:05 AM,30.2,28.4,93,30.16,10.0,NNW,5.8,-,N/A,,Overcast,340,2013-03-02 09:05:00
3:53 AM,30.9,28.0,89,30.17,10.0,NNW,5.8,-,N/A,,Overcast,340,2013-03-02 09:53:00
4:33 AM,32.0,26.6,80,30.17,10.0,NNW,6.9,-,N/A,,Overcast,330,2013-03-02 10:33:00
4:53 AM,30.9,27.0,85,30.18,9.0,NW,6.9,-,N/A,,Overcast,320,2013-03-02 10:53:00
5:41 AM,30.2,24.8,80,30.17,10.0,NW,8.1,16.1,N/A,,Scattered Clouds,320,2013-03-02 11:41:00
6:53 AM,30.0,24.1,79,30.21,10.0,NW,8.1,-,N/A,,Mostly Cloudy,320,2013-03-02 12:53:00
7:53 AM,30.9,24.1,76,30.23,10.0,North,8.1,-,N/A,,Overcast,350,2013-03-02 13:53:00
8:28 AM,30.2,24.8,80,30.24,8.0,NNW,8.1,-,N/A,,Overcast,340,2013-03-02 14:28:00
8:53 AM,30.0,25.0,82,30.25,3.0,North,8.1,-,0.00,Snow,Light Snow,350,2013-03-02 14:53:00
9:12 AM,30.2,26.6,86,30.25,3.0,NNW,8.1,-,0.00,Snow,Light Snow,340,2013-03-02 15:12:00
9:33 AM,30.2,26.6,86,30.25,4.0,NNW,9.2,-,0.00,Snow,Light Snow,330,2013-03-02 15:33:00
9:53 AM,30.9,25.0,79,30.26,6.0,NNW,9.2,17.3,0.00,Snow,Light Snow,340,2013-03-02 15:53:00
10:26 AM,32.0,24.8,75,30.25,10.0,NNW,9.2,17.3,0.00,,Overcast,330,2013-03-02 16:26:00
10:35 AM,33.8,24.8,70,30.25,10.0,NNW,9.2,17.3,0.00,,Overcast,330,2013-03-02 16:35:00
10:53 AM,33.1,23.0,66,30.26,10.0,NNW,8.1,-,0.00,,Overcast,340,2013-03-02 16:53:00
11:53 AM,35.1,23.0,61,30.25,10.0,North,11.5,16.1,N/A,,Overcast,350,2013-03-02 17:53:00
12:53 PM,33.1,21.9,64,30.23,10.0,NNW,8.1,18.4,N/A,,Overcast,340,2013-03-02 18:53:00
1:53 PM,33.1,23.0,66,30.23,10.0,NNW,9.2,-,N/A,,Overcast,330,2013-03-02 19:53:00
2:53 PM,34.0,23.0,64,30.23,10.0,NNW,8.1,-,N/A,,Overcast,340,2013-03-02 20:53:00
3:53 PM,33.1,23.0,66,30.24,10.0,NNW,9.2,-,N/A,,Overcast,340,2013-03-02 21:53:00
4:53 PM,33.1,21.0,61,30.25,10.0,NNW,6.9,-,N/A,,Overcast,340,2013-03-02 22:53:00
5:53 PM,32.0,21.9,66,30.26,10.0,NW,6.9,-,N/A,,Overcast,320,2013-03-02 23:53:00
7:53 PM,32.0,21.9,66,30.27,10.0,NNW,3.5,-,N/A,,Overcast,340,2013-03-03 01:53:00
8:53 PM,30.9,23.0,72,30.27,10.0,Calm,Calm,-,N/A,,Mostly Cloudy,0,2013-03-03 02:53:00
9:53 PM,28.9,23.0,78,30.27,10.0,Calm,Calm,-,N/A,,Overcast,0,2013-03-03 03:53:00
10:53 PM,27.0,21.9,81,30.26,10.0,Calm,Calm,-,N/A,,Partly Cloudy,0,2013-03-03 04:53:00
11:53 PM,26.1,21.9,84,30.26,10.0,Calm,Calm,-,N/A,,Clear,0,2013-03-03 05:53:00